13-03-2022, 00:00:03,    167,    2.2,    6.7,   0.00,   0.00, 1002.5,   78.0, -999.0
13-03-2022, 00:00:13,    138,    1.9,    6.8,   0.00,   0.00, 1002.5,   78.0, -999.0
13-03-2022, 00:00:23,    127,    4.1,    6.8,   0.00,   0.00, 1002.5,   78.0, -999.0
13-03-2022, 00:00:32,    142,    3.8,    6.7,   0.00,   0.00, 1002.5,   78.0, -999.0
13-03-2022, 00:00:43,    134,    2.3,    6.7,   0.00,   0.00, 1002.4,   78.0, -999.0
13-03-2022, 00:00:53,    112,    3.4,    6.7,   0.00,   0.00, 1002.5,   78.0, -999.0
13-03-2022, 00:01:02,    149,    3.0,    6.8,   0.00,   0.00, 1002.4,   78.3, -999.0
13-03-2022, 00:01:12,    144,    3.1,    6.8,   0.00,   0.00, 1002.5,   78.3, -999.0
13-03-2022, 00:01:23,    143,    2.3,    6.8,   0.00,   0.00, 1002.5,   78.2, -999.0
13-03-2022, 00:01:32,    144,    2.1,    6.7,   0.00,   0.00, 1002.5,   78.0, -999.0
13-03-2022, 00:01:42,    125,    3.7,    6.7,   0.00,   0.00, 1002.4,   78.2, -999.0
13-03-2022, 00:01:52,    158,    4.1,    6.7,   0.00,   0.00, 1002.4,   78.1, -999.0
13-03-2022, 00:02:02,    139,    3.8,    6.7,   0.00,   0.00, 1002.4,   78.2, -999.0
13-03-2022, 00:02:12,    114,    2.1,    6.7,   0.00,   0.00, 1002.4,   78.1, -999.0
13-03-2022, 00:02:22,    109,    3.0,    6.6,   0.00,   0.00, 1002.4,   78.1, -999.0
13-03-2022, 00:02:32,    109,    4.4,    6.7,   0.00,   0.00, 1002.4,   78.3, -999.0
13-03-2022, 00:02:42,    114,    2.5,    6.8,   0.00,   0.00, 1002.4,   78.3, -999.0
13-03-2022, 00:02:52,    161,    1.8,    6.8,   0.00,   0.00, 1002.4,   78.4, -999.0
13-03-2022, 00:03:02,    163,    0.4,    6.8,   0.00,   0.00, 1002.3,   78.2, -999.0
13-03-2022, 00:03:12,    162,    0.1,    6.7,   0.00,   0.00, 1002.3,   78.0, -999.0
13-03-2022, 00:03:22,    158,    0.8,    6.8,   0.00,   0.00, 1002.4,   78.2, -999.0
13-03-2022, 00:03:32,    140,    2.0,    6.7,   0.00,   0.00, 1002.4,   78.2, -999.0
13-03-2022, 00:03:41,    122,    2.1,    6.7,   0.00,   0.00, 1002.4,   78.2, -999.0
13-03-2022, 00:03:52,    124,    3.9,    6.6,   0.00,   0.00, 1002.4,   78.3, -999.0
13-03-2022, 00:04:02,    181,    2.8,    6.8,   0.00,   0.00, 1002.4,   78.2, -999.0
13-03-2022, 00:04:11,    160,    2.0,    6.7,   0.00,   0.00, 1002.4,   78.2, -999.0
13-03-2022, 00:04:22,    114,    3.1,    6.7,   0.00,   0.00, 1002.3,   78.1, -999.0
13-03-2022, 00:04:32,    103,    6.2,    6.7,   0.00,   0.00, 1002.4,   78.1, -999.0
13-03-2022, 00:04:41,     91,    6.2,    6.7,   0.00,   0.00, 1002.4,   78.1, -999.0
13-03-2022, 00:04:51,    127,    5.4,    6.8,   0.00,   0.00, 1002.3,   78.2, -999.0
13-03-2022, 00:05:02,    132,    4.4,    6.8,   0.00,   0.00, 1002.4,   78.2, -999.0
13-03-2022, 00:05:11,    156,    3.5,    6.7,   0.00,   0.00, 1002.3,   78.3, -999.0
13-03-2022, 00:05:21,    153,    2.8,    6.7,   0.00,   0.00, 1002.4,   78.3, -999.0
13-03-2022, 00:05:31,    145,    6.5,    6.7,   0.00,   0.00, 1002.3,   78.3, -999.0
13-03-2022, 00:05:41,    140,    3.7,    6.6,   0.00,   0.00, 1002.3,   78.2, -999.0
13-03-2022, 00:05:51,    122,    4.3,    6.6,   0.00,   0.00, 1002.3,   78.2, -999.0
13-03-2022, 00:06:01,    104,    5.4,    6.7,   0.00,   0.00, 1002.4,   78.2, -999.0
13-03-2022, 00:06:11,    128,    2.4,    6.7,   0.00,   0.00, 1002.3,   78.4, -999.0
13-03-2022, 00:06:21,    114,    2.5,    6.7,   0.00,   0.00, 1002.3,   78.3, -999.0
13-03-2022, 00:06:31,    164,    2.3,    6.7,   0.00,   0.00, 1002.3,   78.5, -999.0
13-03-2022, 00:06:41,    132,    2.7,    6.8,   0.00,   0.00, 1002.3,   78.5, -999.0
13-03-2022, 00:06:51,    176,    3.0,    6.7,   0.00,   0.00, 1002.4,   78.2, -999.0
13-03-2022, 00:07:01,    159,    3.3,    6.6,   0.00,   0.00, 1002.4,   78.3, -999.0
13-03-2022, 00:07:11,    169,    2.4,    6.6,   0.00,   0.00, 1002.3,   78.3, -999.0
13-03-2022, 00:07:20,    149,    1.7,    6.7,   0.00,   0.00, 1002.3,   78.4, -999.0
13-03-2022, 00:07:31,    119,    3.7,    6.7,   0.00,   0.00, 1002.3,   78.4, -999.0
13-03-2022, 00:07:41,    163,    3.8,    6.6,   0.00,   0.00, 1002.3,   78.4, -999.0
13-03-2022, 00:07:50,    157,    2.2,    6.6,   0.00,   0.00, 1002.3,   78.4, -999.0
13-03-2022, 00:08:00,    110,    5.1,    6.7,   0.00,   0.00, 1002.4,   78.4, -999.0
13-03-2022, 00:08:11,    156,    4.4,    6.7,   0.00,   0.00, 1002.3,   78.3, -999.0
13-03-2022, 00:08:20,    155,    3.0,    6.7,   0.00,   0.00, 1002.3,   78.4, -999.0
13-03-2022, 00:08:30,    138,    3.2,    6.7,   0.00,   0.00, 1002.3,   78.4, -999.0
13-03-2022, 00:08:41,    137,    0.8,    6.7,   0.00,   0.00, 1002.3,   78.3, -999.0
13-03-2022, 00:08:50,    158,    1.8,    6.7,   0.00,   0.00, 1002.3,   78.5, -999.0
13-03-2022, 00:09:00,    178,    2.8,    6.7,   0.00,   0.00, 1002.3,   78.4, -999.0
13-03-2022, 00:09:10,    152,    2.0,    6.7,   0.00,   0.00, 1002.3,   78.5, -999.0
13-03-2022, 00:09:20,    176,    1.5,    6.7,   0.00,   0.00, 1002.3,   78.4, -999.0
13-03-2022, 00:09:30,    121,    2.9,    6.6,   0.00,   0.00, 1002.3,   78.4, -999.0
13-03-2022, 00:09:40,    161,    1.3,    6.7,   0.00,   0.00, 1002.3,   78.3, -999.0
13-03-2022, 00:09:50,    176,    2.6,    6.6,   0.00,   0.00, 1002.3,   78.4, -999.0
13-03-2022, 00:10:00,    136,    1.1,    6.7,   0.00,   0.00, 1002.3,   78.4, -999.0
13-03-2022, 00:10:10,    134,    1.2,    6.7,   0.00,   0.00, 1002.3,   78.5, -999.0
13-03-2022, 00:10:20,    133,    0.8,    6.7,   0.00,   0.00, 1002.3,   78.5, -999.0
13-03-2022, 00:10:29,    157,    1.1,    6.8,   0.00,   0.00, 1002.3,   78.6, -999.0
13-03-2022, 00:10:40,    161,    0.5,    6.7,   0.00,   0.00, 1002.2,   78.6, -999.0
13-03-2022, 00:10:50,    156,    1.6,    6.8,   0.00,   0.00, 1002.3,   78.6, -999.0
13-03-2022, 00:10:59,    153,    1.4,    6.7,   0.00,   0.00, 1002.3,   78.5, -999.0
13-03-2022, 00:11:10,    153,    0.1,    6.7,   0.00,   0.00, 1002.2,   78.2, -999.0
13-03-2022, 00:11:20,    133,    0.4,    6.6,   0.00,   0.00, 1002.2,   78.3, -999.0
13-03-2022, 00:11:29,    117,    2.7,    6.7,   0.00,   0.00, 1002.3,   78.5, -999.0
13-03-2022, 00:11:39,    143,    2.2,    6.8,   0.00,   0.00, 1002.3,   78.6, -999.0
13-03-2022, 00:11:50,    143,    1.2,    6.8,   0.00,   0.00, 1002.3,   78.5, -999.0
13-03-2022, 00:11:59,    136,    2.3,    6.8,   0.00,   0.00, 1002.3,   78.6, -999.0
13-03-2022, 00:12:09,    175,    1.1,    6.8,   0.00,   0.00, 1002.3,   78.4, -999.0
13-03-2022, 00:12:19,    148,    1.0,    6.7,   0.00,   0.00, 1002.3,   78.5, -999.0
13-03-2022, 00:12:29,    194,    1.9,    6.7,   0.00,   0.00, 1002.3,   78.4, -999.0
13-03-2022, 00:12:39,    180,    2.4,    6.7,   0.00,   0.00, 1002.3,   78.4, -999.0
13-03-2022, 00:12:49,    162,    1.1,    6.7,   0.00,   0.00, 1002.2,   78.4, -999.0
13-03-2022, 00:12:59,    143,    2.0,    6.7,   0.00,   0.00, 1002.3,   78.3, -999.0
13-03-2022, 00:13:09,    104,    2.9,    6.8,   0.00,   0.00, 1002.2,   78.6, -999.0
13-03-2022, 00:13:19,    142,    1.3,    6.7,   0.00,   0.00, 1002.2,   78.6, -999.0
13-03-2022, 00:13:29,    142,    1.5,    6.8,   0.00,   0.00, 1002.3,   78.5, -999.0
13-03-2022, 00:13:39,    146,    0.4,    6.7,   0.00,   0.00, 1002.2,   78.4, -999.0
13-03-2022, 00:13:49,    147,    0.8,    6.7,   0.00,   0.00, 1002.2,   78.5, -999.0
13-03-2022, 00:13:59,    128,    0.9,    6.7,   0.00,   0.00, 1002.2,   78.5, -999.0
13-03-2022, 00:14:08,    130,    3.4,    6.6,   0.00,   0.00, 1002.2,   78.6, -999.0
13-03-2022, 00:14:19,    152,    1.0,    6.7,   0.00,   0.00, 1002.2,   78.6, -999.0
13-03-2022, 00:14:29,    179,    0.8,    6.7,   0.00,   0.00, 1002.3,   78.5, -999.0
13-03-2022, 00:14:38,    182,    0.6,    6.7,   0.00,   0.00, 1002.1,   78.3, -999.0
13-03-2022, 00:14:48,    138,    1.8,    6.7,   0.00,   0.00, 1002.2,   78.5, -999.0
13-03-2022, 00:14:59,    169,    3.5,    6.7,   0.00,   0.00, 1002.2,   78.4, -999.0
13-03-2022, 00:15:08,    143,    2.2,    6.7,   0.00,   0.00, 1002.1,   78.4, -999.0
13-03-2022, 00:15:18,    152,    3.2,    6.7,   0.00,   0.00, 1002.2,   78.6, -999.0
13-03-2022, 00:15:28,    181,    1.3,    6.7,   0.00,   0.00, 1002.2,   78.6, -999.0
13-03-2022, 00:15:38,    137,    3.1,    6.8,   0.00,   0.00, 1002.1,   78.6, -999.0
13-03-2022, 00:15:48,    174,    3.2,    6.8,   0.00,   0.00, 1002.2,   78.5, -999.0
13-03-2022, 00:15:58,    147,    3.0,    6.7,   0.00,   0.00, 1002.2,   78.5, -999.0
13-03-2022, 00:16:08,    124,    3.2,    6.7,   0.00,   0.00, 1002.2,   78.6, -999.0
13-03-2022, 00:16:18,    149,    1.9,    6.8,   0.00,   0.00, 1002.2,   78.5, -999.0
13-03-2022, 00:16:28,    154,    1.8,    6.8,   0.00,   0.00, 1002.2,   78.6, -999.0
13-03-2022, 00:16:38,    125,    2.4,    6.8,   0.00,   0.00, 1002.2,   78.6, -999.0
13-03-2022, 00:16:48,     89,    2.3,    6.7,   0.00,   0.00, 1002.2,   78.7, -999.0
13-03-2022, 00:16:58,    122,    3.5,    6.9,   0.00,   0.00, 1002.2,   78.7, -999.0
13-03-2022, 00:17:08,    166,    3.3,    6.8,   0.00,   0.00, 1002.3,   78.7, -999.0
13-03-2022, 00:17:18,    152,    4.9,    6.8,   0.00,   0.00, 1002.2,   78.7, -999.0
13-03-2022, 00:17:28,    186,    4.0,    6.7,   0.00,   0.00, 1002.2,   78.5, -999.0
13-03-2022, 00:17:38,    115,    2.6,    6.7,   0.00,   0.00, 1002.2,   78.4, -999.0
13-03-2022, 00:17:47,    134,    2.6,    6.8,   0.00,   0.00, 1002.2,   78.5, -999.0
13-03-2022, 00:17:58,    126,    2.4,    6.8,   0.00,   0.00, 1002.1,   78.6, -999.0
13-03-2022, 00:18:08,    158,    0.9,    6.8,   0.00,   0.00, 1002.1,   78.6, -999.0
13-03-2022, 00:18:17,    121,    1.1,    6.8,   0.00,   0.00, 1002.1,   78.5, -999.0
13-03-2022, 00:18:27,    114,    3.0,    6.9,   0.00,   0.00, 1002.2,   78.5, -999.0
13-03-2022, 00:18:38,    116,    4.0,    6.8,   0.00,   0.00, 1002.1,   78.5, -999.0
13-03-2022, 00:18:47,     95,    4.2,    6.8,   0.00,   0.00, 1002.1,   78.4, -999.0
13-03-2022, 00:18:57,    105,    2.9,    6.8,   0.00,   0.00, 1002.1,   78.4, -999.0
13-03-2022, 00:19:07,    120,    3.8,    6.9,   0.00,   0.00, 1002.2,   78.5, -999.0
13-03-2022, 00:19:17,    154,    3.0,    6.9,   0.00,   0.00, 1002.2,   78.4, -999.0
13-03-2022, 00:19:27,    142,    2.6,    6.8,   0.00,   0.00, 1002.1,   78.3, -999.0
13-03-2022, 00:19:37,    153,    2.6,    6.8,   0.00,   0.00, 1002.2,   78.2, -999.0
13-03-2022, 00:19:47,    137,    6.3,    6.8,   0.00,   0.00, 1002.2,   78.2, -999.0
13-03-2022, 00:19:57,    141,    3.5,    6.7,   0.00,   0.00, 1002.1,   78.3, -999.0
13-03-2022, 00:20:07,    165,    2.9,    6.8,   0.00,   0.00, 1002.1,   78.3, -999.0
13-03-2022, 00:20:17,    148,    3.6,    6.7,   0.00,   0.00, 1002.1,   78.3, -999.0
13-03-2022, 00:20:27,    103,    4.6,    6.7,   0.00,   0.00, 1002.1,   78.4, -999.0
13-03-2022, 00:20:37,    138,    3.0,    6.7,   0.00,   0.00, 1002.1,   78.4, -999.0
13-03-2022, 00:20:47,    129,    1.5,    6.8,   0.00,   0.00, 1002.1,   78.4, -999.0
13-03-2022, 00:20:57,    144,    2.6,    6.8,   0.00,   0.00, 1002.1,   78.5, -999.0
13-03-2022, 00:21:07,    133,    2.5,    6.8,   0.00,   0.00, 1002.1,   78.5, -999.0
13-03-2022, 00:21:17,    180,    3.6,    6.8,   0.00,   0.00, 1002.2,   78.4, -999.0
13-03-2022, 00:21:26,    119,    4.5,    6.7,   0.00,   0.00, 1002.1,   78.6, -999.0
13-03-2022, 00:21:37,    124,    2.8,    6.7,   0.00,   0.00, 1002.1,   78.4, -999.0
13-03-2022, 00:21:47,    118,    3.4,    6.7,   0.00,   0.00, 1002.1,   78.4, -999.0
13-03-2022, 00:21:56,    140,    2.5,    6.7,   0.00,   0.00, 1002.1,   78.6, -999.0
13-03-2022, 00:22:06,    110,    3.7,    6.7,   0.00,   0.00, 1002.1,   78.7, -999.0
13-03-2022, 00:22:16,    117,    4.4,    6.8,   0.00,   0.00, 1002.1,   78.7, -999.0
13-03-2022, 00:22:26,    130,    3.0,    6.8,   0.00,   0.00, 1002.1,   78.7, -999.0
13-03-2022, 00:22:36,    162,    1.4,    6.8,   0.00,   0.00, 1002.1,   78.8, -999.0
13-03-2022, 00:22:46,    147,    2.0,    6.8,   0.00,   0.00, 1002.1,   78.7, -999.0
13-03-2022, 00:22:56,    175,    2.2,    6.8,   0.00,   0.00, 1002.1,   78.7, -999.0
13-03-2022, 00:23:06,    130,    3.8,    6.7,   0.00,   0.00, 1002.1,   78.7, -999.0
13-03-2022, 00:23:16,    117,    6.7,    6.7,   0.00,   0.00, 1002.1,   78.7, -999.0
13-03-2022, 00:23:26,    147,    4.1,    6.7,   0.00,   0.00, 1002.1,   78.7, -999.0
13-03-2022, 00:23:36,    150,    3.0,    6.7,   0.00,   0.00, 1002.1,   78.7, -999.0
13-03-2022, 00:23:46,    136,    2.6,    6.7,   0.00,   0.00, 1002.1,   78.7, -999.0
13-03-2022, 00:23:56,    133,    1.9,    6.7,   0.00,   0.00, 1002.1,   78.8, -999.0
13-03-2022, 00:24:06,    126,    1.6,    6.7,   0.00,   0.00, 1002.1,   78.8, -999.0
13-03-2022, 00:24:16,    165,    1.2,    6.8,   0.00,   0.00, 1002.1,   78.8, -999.0
13-03-2022, 00:24:26,    147,    1.7,    6.8,   0.00,   0.00, 1002.1,   78.8, -999.0
13-03-2022, 00:24:35,    126,    4.3,    6.8,   0.00,   0.00, 1002.1,   78.8, -999.0
13-03-2022, 00:24:46,    129,    4.5,    6.8,   0.00,   0.00, 1002.1,   78.9, -999.0
13-03-2022, 00:24:56,    123,    2.8,    6.8,   0.00,   0.00, 1002.1,   78.8, -999.0
13-03-2022, 00:25:05,    147,    2.4,    6.8,   0.00,   0.00, 1002.1,   78.8, -999.0
13-03-2022, 00:25:16,    160,    3.7,    6.7,   0.00,   0.00, 1002.1,   78.8, -999.0
13-03-2022, 00:25:25,    152,    5.7,    6.7,   0.00,   0.00, 1002.1,   78.7, -999.0
13-03-2022, 00:25:35,    187,    3.4,    6.7,   0.00,   0.00, 1002.1,   78.6, -999.0
13-03-2022, 00:25:45,    144,    2.4,    6.7,   0.00,   0.00, 1002.0,   78.5, -999.0
13-03-2022, 00:25:55,    151,    4.4,    6.7,   0.00,   0.00, 1002.1,   78.6, -999.0
13-03-2022, 00:26:05,    123,    4.2,    6.7,   0.00,   0.00, 1002.1,   78.6, -999.0
13-03-2022, 00:26:15,    117,    4.5,    6.7,   0.00,   0.00, 1002.1,   78.8, -999.0
13-03-2022, 00:26:25,    116,    2.8,    6.7,   0.00,   0.00, 1002.1,   78.8, -999.0
13-03-2022, 00:26:35,    162,    2.3,    6.8,   0.00,   0.00, 1002.1,   78.9, -999.0
13-03-2022, 00:26:45,    124,    3.4,    6.7,   0.00,   0.00, 1002.1,   78.9, -999.0
13-03-2022, 00:26:55,    119,    3.9,    6.7,   0.00,   0.00, 1002.1,   78.8, -999.0
13-03-2022, 00:27:05,    137,    2.8,    6.7,   0.00,   0.00, 1002.1,   78.9, -999.0
13-03-2022, 00:27:15,    142,    0.5,    6.8,   0.00,   0.00, 1002.1,   78.8, -999.0
13-03-2022, 00:27:25,    137,    0.6,    6.8,   0.00,   0.00, 1002.0,   78.8, -999.0
13-03-2022, 00:27:35,    141,    2.5,    6.8,   0.00,   0.00, 1002.1,   78.9, -999.0
13-03-2022, 00:27:45,    135,    3.0,    6.7,   0.00,   0.00, 1002.1,   78.8, -999.0
13-03-2022, 00:27:55,    136,    4.9,    6.8,   0.00,   0.00, 1002.1,   78.8, -999.0
13-03-2022, 00:28:05,    135,    1.7,    6.8,   0.00,   0.00, 1002.1,   78.7, -999.0
13-03-2022, 00:28:14,    136,    2.0,    6.7,   0.00,   0.00, 1002.1,   78.7, -999.0
13-03-2022, 00:28:25,    114,    2.4,    6.8,   0.00,   0.00, 1002.1,   78.8, -999.0
13-03-2022, 00:28:34,    141,    2.1,    6.8,   0.00,   0.00, 1002.1,   78.9, -999.0
13-03-2022, 00:28:44,    139,    1.6,    6.9,   0.00,   0.00, 1002.1,   79.0, -999.0
13-03-2022, 00:28:54,    165,    1.7,    6.8,   0.00,   0.00, 1002.1,   78.8, -999.0
13-03-2022, 00:29:04,    108,    3.6,    6.8,   0.00,   0.00, 1002.0,   78.9, -999.0
13-03-2022, 00:29:14,    119,    4.3,    6.8,   0.00,   0.00, 1002.1,   78.8, -999.0
13-03-2022, 00:29:24,    135,    2.7,    6.8,   0.00,   0.00, 1002.1,   78.8, -999.0
13-03-2022, 00:29:34,     82,    3.9,    6.8,   0.00,   0.00, 1002.1,   78.9, -999.0
13-03-2022, 00:29:44,    124,    3.8,    6.8,   0.00,   0.00, 1002.1,   78.8, -999.0
13-03-2022, 00:29:54,    152,    2.9,    6.9,   0.00,   0.00, 1002.0,   78.8, -999.0
13-03-2022, 00:30:04,    157,    0.9,    6.8,   0.00,   0.00, 1002.1,   78.6, -999.0
13-03-2022, 00:30:14,    158,    0.9,    6.8,   0.00,   0.00, 1002.1,   78.5, -999.0
13-03-2022, 00:30:24,    139,    1.2,    6.7,   0.00,   0.00, 1002.1,   78.4, -999.0
13-03-2022, 00:30:34,    121,    2.4,    6.8,   0.00,   0.00, 1002.0,   78.5, -999.0
13-03-2022, 00:30:44,    121,    3.9,    6.7,   0.00,   0.00, 1002.1,   78.6, -999.0
13-03-2022, 00:30:54,    123,    4.3,    6.8,   0.00,   0.00, 1002.1,   78.7, -999.0
13-03-2022, 00:31:04,    174,    6.4,    6.8,   0.00,   0.00, 1002.0,   78.5, -999.0
13-03-2022, 00:31:14,    122,    5.3,    6.7,   0.00,   0.00, 1002.0,   78.5, -999.0
13-03-2022, 00:31:24,    141,    3.5,    6.7,   0.00,   0.00, 1002.0,   78.5, -999.0
13-03-2022, 00:31:34,    157,    3.9,    6.7,   0.00,   0.00, 1002.0,   78.6, -999.0
13-03-2022, 00:31:43,    132,    2.0,    6.7,   0.00,   0.00, 1002.0,   78.6, -999.0
13-03-2022, 00:31:53,    153,    2.2,    6.7,   0.00,   0.00, 1002.0,   78.6, -999.0
13-03-2022, 00:32:04,    114,    3.4,    6.6,   0.00,   0.00, 1002.0,   78.6, -999.0
13-03-2022, 00:32:13,    134,    1.8,    6.7,   0.00,   0.00, 1002.0,   78.7, -999.0
13-03-2022, 00:32:23,    155,    1.7,    6.8,   0.00,   0.00, 1002.0,   78.9, -999.0
13-03-2022, 00:32:33,    181,    2.6,    6.8,   0.00,   0.00, 1002.1,   78.8, -999.0
13-03-2022, 00:32:43,    112,    4.8,    6.7,   0.00,   0.00, 1002.1,   78.7, -999.0
13-03-2022, 00:32:53,    152,    5.8,    6.7,   0.00,   0.00, 1002.0,   78.5, -999.0
13-03-2022, 00:33:03,    153,    4.6,    6.7,   0.00,   0.00, 1002.1,   78.5, -999.0
13-03-2022, 00:33:13,    148,    2.9,    6.8,   0.00,   0.00, 1002.0,   78.6, -999.0
13-03-2022, 00:33:23,    147,    0.8,    6.7,   0.00,   0.00, 1002.0,   78.6, -999.0
13-03-2022, 00:33:33,    153,    1.9,    6.8,   0.00,   0.00, 1002.0,   78.8, -999.0
13-03-2022, 00:33:43,    154,    1.5,    6.8,   0.00,   0.00, 1002.0,   78.8, -999.0
13-03-2022, 00:33:53,    162,    2.0,    6.8,   0.00,   0.00, 1002.0,   78.9, -999.0
13-03-2022, 00:34:03,    144,    2.6,    6.7,   0.00,   0.00, 1002.0,   78.6, -999.0
13-03-2022, 00:34:13,    161,    1.5,    6.8,   0.00,   0.00, 1002.0,   78.7, -999.0
13-03-2022, 00:34:23,    143,    3.2,    6.7,   0.00,   0.00, 1002.1,   78.8, -999.0
13-03-2022, 00:34:33,    110,    6.1,    6.8,   0.00,   0.00, 1002.1,   78.7, -999.0
13-03-2022, 00:34:43,    155,    6.2,    6.7,   0.00,   0.00, 1002.1,   78.8, -999.0
13-03-2022, 00:34:53,     90,    2.6,    6.7,   0.00,   0.00, 1002.1,   78.8, -999.0
13-03-2022, 00:35:03,    104,    3.6,    6.8,   0.00,   0.00, 1002.0,   78.7, -999.0
13-03-2022, 00:35:13,    140,    2.3,    6.7,   0.00,   0.00, 1002.0,   78.8, -999.0
13-03-2022, 00:35:22,    134,    2.2,    6.8,   0.00,   0.00, 1002.0,   78.9, -999.0
13-03-2022, 00:35:32,    133,    0.7,    6.8,   0.00,   0.00, 1002.0,   78.8, -999.0
13-03-2022, 00:35:42,    149,    2.4,    6.8,   0.00,   0.00, 1002.0,   78.8, -999.0
13-03-2022, 00:35:52,    128,    2.4,    6.8,   0.00,   0.00, 1002.0,   78.8, -999.0
13-03-2022, 00:36:02,    152,    4.9,    6.8,   0.00,   0.00, 1002.0,   78.7, -999.0
13-03-2022, 00:36:12,    155,    3.4,    6.8,   0.00,   0.00, 1002.0,   78.7, -999.0
13-03-2022, 00:36:22,    143,    3.1,    6.8,   0.00,   0.00, 1002.1,   78.6, -999.0
13-03-2022, 00:36:32,    166,    3.0,    6.8,   0.00,   0.00, 1002.1,   78.6, -999.0
13-03-2022, 00:36:42,     85,    4.0,    6.8,   0.00,   0.00, 1002.0,   78.5, -999.0
13-03-2022, 00:36:52,    123,    3.3,    6.7,   0.00,   0.00, 1002.0,   78.5, -999.0
13-03-2022, 00:37:02,    123,    4.1,    6.8,   0.00,   0.00, 1002.0,   78.6, -999.0
13-03-2022, 00:37:12,    183,    1.8,    6.8,   0.00,   0.00, 1002.0,   78.6, -999.0
13-03-2022, 00:37:22,    162,    0.6,    6.8,   0.00,   0.00, 1002.0,   78.6, -999.0
13-03-2022, 00:37:32,    152,    1.2,    6.8,   0.00,   0.00, 1002.0,   78.7, -999.0
13-03-2022, 00:37:42,    109,    2.0,    6.8,   0.00,   0.00, 1002.0,   78.6, -999.0
13-03-2022, 00:37:52,    143,    3.0,    6.8,   0.00,   0.00, 1002.0,   78.8, -999.0
13-03-2022, 00:38:02,    138,    3.0,    6.9,   0.00,   0.00, 1002.0,   78.6, -999.0
13-03-2022, 00:38:12,    126,    3.3,    6.8,   0.00,   0.00, 1002.0,   78.6, -999.0
13-03-2022, 00:38:22,    191,    2.5,    6.7,   0.00,   0.00, 1002.0,   78.5, -999.0
13-03-2022, 00:38:32,    175,    2.3,    6.8,   0.00,   0.00, 1002.0,   78.5, -999.0
13-03-2022, 00:38:41,    145,    2.9,    6.8,   0.00,   0.00, 1002.0,   78.4, -999.0
13-03-2022, 00:38:51,    140,    3.1,    6.8,   0.00,   0.00, 1002.0,   78.4, -999.0
13-03-2022, 00:39:02,    176,    3.3,    6.8,   0.00,   0.00, 1002.0,   78.5, -999.0
13-03-2022, 00:39:11,    131,    3.9,    6.8,   0.00,   0.00, 1001.9,   78.3, -999.0
13-03-2022, 00:39:21,    153,    1.4,    6.7,   0.00,   0.00, 1002.0,   78.4, -999.0
13-03-2022, 00:39:31,    132,    2.3,    6.8,   0.00,   0.00, 1002.0,   78.6, -999.0
13-03-2022, 00:39:41,    147,    2.0,    6.8,   0.00,   0.00, 1002.0,   78.6, -999.0
13-03-2022, 00:39:51,    114,    2.3,    6.8,   0.00,   0.00, 1002.0,   78.6, -999.0
13-03-2022, 00:40:01,    125,    2.1,    6.8,   0.00,   0.00, 1002.0,   78.6, -999.0
13-03-2022, 00:40:11,    153,    1.9,    6.8,   0.00,   0.00, 1002.0,   78.6, -999.0
13-03-2022, 00:40:21,    160,    3.5,    6.8,   0.00,   0.00, 1002.0,   78.7, -999.0
13-03-2022, 00:40:31,    135,    2.6,    6.8,   0.00,   0.00, 1002.0,   78.5, -999.0
13-03-2022, 00:40:41,    149,    1.1,    6.8,   0.00,   0.00, 1002.0,   78.4, -999.0
13-03-2022, 00:40:51,    147,    1.6,    6.8,   0.00,   0.00, 1001.9,   78.5, -999.0
13-03-2022, 00:41:01,    141,    2.3,    6.8,   0.00,   0.00, 1002.0,   78.5, -999.0
13-03-2022, 00:41:11,    149,    4.6,    6.8,   0.00,   0.00, 1002.0,   78.5, -999.0
13-03-2022, 00:41:21,    154,    4.8,    6.8,   0.00,   0.00, 1002.0,   78.5, -999.0
13-03-2022, 00:41:31,    146,    3.6,    6.8,   0.00,   0.00, 1002.0,   78.5, -999.0
13-03-2022, 00:41:41,    154,    3.1,    6.8,   0.00,   0.00, 1002.0,   78.5, -999.0
13-03-2022, 00:41:51,    184,    3.4,    6.7,   0.00,   0.00, 1002.0,   78.5, -999.0
13-03-2022, 00:42:00,    136,    2.0,    6.7,   0.00,   0.00, 1002.0,   78.4, -999.0
13-03-2022, 00:42:11,    113,    3.2,    6.7,   0.00,   0.00, 1002.0,   78.5, -999.0
13-03-2022, 00:42:20,    144,    4.3,    6.7,   0.00,   0.00, 1002.0,   78.5, -999.0
13-03-2022, 00:42:30,    161,    3.4,    6.7,   0.00,   0.00, 1002.0,   78.6, -999.0
13-03-2022, 00:42:40,    159,    2.4,    6.7,   0.00,   0.00, 1002.0,   78.5, -999.0
13-03-2022, 00:42:50,    171,    2.3,    6.8,   0.00,   0.00, 1002.0,   78.7, -999.0
13-03-2022, 00:43:00,    154,    2.9,    6.7,   0.00,   0.00, 1002.0,   78.6, -999.0
13-03-2022, 00:43:10,    141,    2.5,    6.8,   0.00,   0.00, 1002.0,   78.6, -999.0
13-03-2022, 00:43:20,    140,    4.0,    6.7,   0.00,   0.00, 1002.0,   78.7, -999.0
13-03-2022, 00:43:30,    159,    2.1,    6.7,   0.00,   0.00, 1002.0,   78.7, -999.0
13-03-2022, 00:43:40,    159,    0.5,    6.7,   0.00,   0.00, 1001.9,   78.7, -999.0
13-03-2022, 00:43:50,    144,    1.8,    6.7,   0.00,   0.00, 1002.0,   78.8, -999.0
13-03-2022, 00:44:00,    179,    3.0,    6.8,   0.00,   0.00, 1002.0,   78.9, -999.0
13-03-2022, 00:44:10,    149,    4.5,    6.8,   0.00,   0.00, 1002.0,   79.0, -999.0
13-03-2022, 00:44:20,    137,    2.3,    6.8,   0.00,   0.00, 1001.9,   78.8, -999.0
13-03-2022, 00:44:30,    136,    1.7,    6.8,   0.00,   0.00, 1002.0,   78.8, -999.0
13-03-2022, 00:44:40,    121,    2.0,    6.8,   0.00,   0.00, 1002.0,   78.8, -999.0
13-03-2022, 00:44:50,    162,    1.4,    6.8,   0.00,   0.00, 1002.0,   78.8, -999.0
13-03-2022, 00:45:00,    123,    4.9,    6.7,   0.00,   0.00, 1001.9,   78.9, -999.0
13-03-2022, 00:45:10,    114,    3.4,    6.8,   0.00,   0.00, 1002.0,   78.8, -999.0
13-03-2022, 00:45:20,    134,    2.0,    6.8,   0.00,   0.00, 1002.0,   78.8, -999.0
13-03-2022, 00:45:29,    168,    1.0,    6.8,   0.00,   0.00, 1001.9,   78.8, -999.0
13-03-2022, 00:45:39,    170,    0.8,    6.8,   0.00,   0.00, 1002.0,   78.8, -999.0
13-03-2022, 00:45:50,    169,    0.3,    6.7,   0.00,   0.00, 1001.9,   78.7, -999.0
13-03-2022, 00:45:59,    169,    0.3,    6.8,   0.00,   0.00, 1001.9,   78.7, -999.0
13-03-2022, 00:46:09,    127,    0.4,    6.8,   0.00,   0.00, 1001.9,   78.8, -999.0
13-03-2022, 00:46:19,    116,    1.9,    6.7,   0.00,   0.00, 1002.0,   78.8, -999.0
13-03-2022, 00:46:29,    119,    3.4,    6.8,   0.00,   0.00, 1002.0,   78.9, -999.0
13-03-2022, 00:46:39,    146,    4.8,    6.7,   0.00,   0.00, 1001.9,   78.9, -999.0